Dewpoint
55 55 52 51 55 54 52 53 59 59 59 59 60 59 59 59 59 58 58 58 59 59 59 59 59 59 59 59 59 60 47 20 19 19 18 21 38 55 56 57 58 60 49 28 26 21 19 21 23 23 17 18 21 24 24 26 33 32 26 25 24 26 27 29 29 27 28 28 26 25 28 33 31 33 35 39 38 38 39 40 41 41 41 42 42 43 44 45
57 54 53 54 56 56 57 58 59 59 59 59 59 59 58 58 58 58 58 58 57 57 58 59 59 59 57 58 58 55 33 19 17 17 19 34 51 54 56 55 59 58 46 24 27 24 18 18 24 17 17 19 20 24 26 25 29 28 27 23 22 25 27 31 30 28 24 24 26 26 26 33 32 35 35 33 32 37 36 36 39 41 41 41 43 46 47 46
57 55 56 53 56 56 58 58 58 59 59 59 59 59 58 57 57 57 57 58 57 57 58 58 59 58 58 59 58 53 36 19 17 16 18 51 55 55 54 55 59 50 27 27 29 26 22 21 26 16 15 17 16 24 26 26 28 30 28 26 26 26 27 30 27 23 25 25 21 22 25 29 31 35 37 34 33 34 35 36 35 38 37 40 42 45 47 46
56 55 56 55 57 58 58 58 58 59 59 59 59 59 58 58 58 58 57 57 58 58 58 58 58 57 57 58 58 42 21 18 16 18 20 50 54 54 52 56 55 47 34 34 31 30 20 17 17 15 18 17 18 21 23 24 26 26 26 25 26 28 26 24 27 23 22 22 22 22 24 22 26 34 37 35 30 27 32 36 32 31 34 37 42 45 46 47
57 56 56 56 58 58 58 58 58 58 59 59 59 59 58 58 58 57 57 57 58 58 57 58 59 57 58 58 53 24 19 15 15 20 22 51 52 51 51 58 51 36 33 33 17 16 20 18 15 18 18 17 21 19 17 18 26 28 26 28 26 26 23 24 22 22 22 23 23 23 19 19 27 31 35 35 30 23 25 28 36 37 37 39 42 44 46 47
56 56 56 57 58 58 57 58 58 58 59 59 58 58 58 58 57 58 58 57 58 58 58 58 58 58 57 54 32 28 18 11 24 19 48 50 53 49 50 50 50 29 19 17 16 15 12 11 13 17 17 14 14 15 13 16 21 26 24 21 26 23 22 21 22 22 23 21 19 19 24 22 25 23 28 35 34 32 32 35 35 36 38 38 42 44 45 46
57 57 57 57 57 57 57 58 58 58 58 58 58 58 58 57 58 57 57 58 58 58 59 58 57 55 54 52 33 25 19 20 15 20 46 50 48 46 46 43 43 21 19 18 16 16 14 11 14 19 15 15 14 14 19 23 20 17 17 21 20 22 20 21 21 22 22 21 20 22 23 20 20 18 24 26 28 33 35 33 34 35 36 36 41 43 45 45
57 57 57 57 57 57 57 57 58 58 58 58 58 58 57 57 57 57 58 58 58 58 58 58 56 55 54 32 26 21 15 14 14 23 41 45 30 28 45 24 21 21 19 18 16 14 15 12 10 16 13 12 15 15 24 18 21 21 21 21 19 21 21 20 21 21 20 20 21 18 18 18 21 19 21 20 20 21 23 36 34 35 38 40 40 43 44 45
57 57 57 56 57 57 56 57 57 58 58 58 58 57 57 57 57 57 57 58 58 58 58 57 54 57 51 28 23 20 16 13 17 24 27 20 21 24 25 21 22 20 19 22 17 14 15 15 15 11 13 14 16 22 24 18 16 24 20 21 20 19 20 19 19 19 17 18 19 17 16 17 16 23 19 18 19 28 31 36 32 35 39 39 41 42 44 44
56 56 56 56 56 56 57 57 57 57 58 58 58 57 57 57 57 58 58 58 58 58 58 57 55 52 33 24 24 20 17 17 23 23 18 21 22 23 22 23 22 21 21 20 21 19 19 16 16 14 13 14 19 22 24 22 20 23 23 21 18 19 19 18 18 18 16 17 19 16 16 16 21 16 13 19 23 28 32 34 33 35 37 38 39 41 43 43
56 56 56 56 57 57 57 57 57 57 58 58 57 58 57 57 57 58 58 58 58 58 58 57 58 50 25 20 16 12 15 19 26 16 18 21 21 21 21 22 23 21 20 20 20 20 19 17 19 16 23 18 23 22 20 21 22 21 21 22 19 20 19 18 18 17 17 16 18 18 17 16 18 17 15 14 21 30 32 33 30 35 36 37 38 40 42 43
56 56 56 57 56 57 57 58 58 58 58 58 58 58 58 57 58 58 59 59 59 57 55 51 46 23 20 16 14 14 18 19 23 17 18 22 21 23 23 24 23 21 20 19 20 21 19 20 19 23 15 23 21 23 21 24 20 20 21 17 18 19 16 17 18 18 18 16 19 19 13 14 18 16 19 18 26 30 31 32 31 33 35 35 36 38 40 42
56 56 56 56 56 57 57 57 58 58 58 57 58 58 58 57 58 59 59 58 57 56 53 54 42 33 27 20 16 17 20 20 20 19 16 22 23 23 23 23 23 22 21 19 20 21 25 24 24 23 26 21 23 17 22 24 22 22 19 19 18 17 18 16 21 20 17 16 20 9 -7 -5 9 18 18 18 26 28 23 25 28 30 31 34 35 36 38 40
56 56 56 56 56 56 57 58 58 58 57 57 57 57 58 58 58 58 57 55 56 56 56 54 34 30 24 17 17 17 22 23 18 17 17 22 21 20 21 21 22 22 23 21 23 26 26 24 25 25 29 22 23 26 18 21 21 16 19 20 18 6 4 18 21 21 15 18 19 12 0 -1 -0 0 7 12 28 25 21 20 21 24 27 29 31 34 35 38
56 56 56 56 57 56 57 57 58 58 58 58 57 56 58 58 59 58 56 54 54 55 57 53 29 25 21 18 18 22 46 18 16 17 18 21 20 19 19 21 21 22 22 22 24 26 21 19 17 16 18 25 26 21 18 18 17 19 2 10 16 4 9 13 20 19 14 15 19 14 7 9 4 6 12 22 27 25 17 17 18 20 21 24 27 28 30 34
55 56 56 56 57 57 56 57 57 57 57 57 58 58 58 58 58 57 57 55 51 56 47 35 31 23 19 16 15 32 16 15 15 17 17 23 21 20 21 21 21 20 21 21 23 24 25 22 16 18 21 16 17 15 9 12 11 14 2 -7 5 10 8 4 18 20 18 18 16 10 2 8 -1 5 11 21 17 15 17 15 14 15 16 18 19 22 27 30
55 55 55 56 56 57 56 57 56 57 57 57 56 55 57 57 58 56 55 54 48 44 29 27 28 33 22 21 14 11 13 15 17 17 16 23 22 22 21 19 19 19 19 20 21 20 21 19 23 20 19 16 18 11 -2 11 8 5 15 -0 5 3 7 2 9 19 18 13 12 15 14 12 5 8 9 7 6 10 10 9 9 11 12 14 17 20 23 26
55 55 55 56 56 56 56 57 56 56 56 56 53 54 51 56 54 51 41 42 37 36 34 34 29 18 16 10 1 8 16 17 18 17 17 18 23 23 20 18 21 16 17 16 16 17 20 17 18 13 12 15 14 13 7 -28 -20 -13 3 5 6 12 14 6 7 7 13 18 11 11 12 11 8 5 5 6 6 10 9 10 10 11 11 12 13 16 20 23
55 55 55 55 56 57 57 57 55 55 56 56 53 51 49 46 37 29 30 30 24 23 23 23 18 13 10 9 13 16 18 18 18 15 17 18 23 23 24 20 18 16 17 13 17 19 20 19 17 10 4 11 16 8 0 -21 2 -3 5 6 4 3 3 -0 4 13 14 10 10 7 5 4 6 6 6 6 7 8 9 10 10 10 11 11 13 15 17 21
55 55 55 55 56 57 56 55 55 54 53 44 38 35 35 25 25 18 25 27 19 17 20 19 18 20 16 14 15 17 19 9 12 14 17 20 25 18 12 17 18 19 19 15 19 21 23 12 3 2 2 13 16 17 11 3 14 14 16 14 13 12 11 12 13 16 17 11 9 8 10 8 6 6 6 5 6 7 9 8 8 11 11 12 13 15 17 18
55 55 55 55 56 56 57 55 56 53 53 41 40 34 25 20 11 10 16 18 25 25 25 21 18 13 12 12 16 17 5 5 13 13 17 27 21 12 2 13 16 13 15 21 20 23 19 9 2 8 10 14 15 19 19 16 17 13 15 12 9 14 4 4 7 13 16 10 10 9 6 6 6 5 5 5 5 6 9 9 9 11 11 12 15 17 18 18
55 55 55 55 55 56 56 56 55 54 50 40 37 32 31 27 23 15 18 10 19 26 25 21 18 14 16 17 17 12 6 2 6 11 17 23 20 9 12 12 10 6 17 21 18 16 10 -0 3 8 14 19 20 19 16 14 13 12 9 8 5 4 7 6 10 13 16 10 8 9 7 6 6 5 5 4 4 10 10 13 11 12 12 14 16 18 19 19
54 55 55 56 55 55 56 55 54 52 38 32 36 36 35 38 41 39 24 19 20 24 22 22 19 15 15 17 18 15 8 6 3 10 18 24 19 20 20 13 16 16 12 17 12 4 2 -3 7 17 17 15 15 15 12 12 14 11 11 6 2 1 -2 3 6 11 13 12 8 10 10 7 4 1 5 3 8 11 8 12 9 11 11 14 16 18 19 18
54 55 56 55 55 55 55 55 48 39 38 38 38 37 40 40 37 31 27 18 19 23 25 23 20 16 16 17 19 14 10 11 12 12 19 25 21 21 21 19 17 14 10 18 13 0 -20 8 20 20 18 14 13 14 12 13 10 14 9 7 5 1 3 -3 0 11 13 13 14 12 4 -1 -4 -2 -0 5 10 6 6 6 9 10 13 15 17 17 19 19
53 55 56 56 54 55 54 46 38 35 36 29 35 38 39 41 40 31 26 21 22 21 28 27 21 20 18 22 22 18 17 14 15 16 19 24 24 21 21 22 17 13 11 18 7 6 4 12 20 17 16 15 13 13 13 11 9 9 11 8 6 2 4 8 13 8 -0 -3 8 9 1 -2 -6 -0 -1 6 5 3 5 8 9 11 11 14 14 16 18 19
54 55 56 56 54 53 49 34 28 38 28 28 35 39 39 39 37 30 21 16 5 20 18 17 21 13 20 19 17 20 12 13 11 13 32 28 29 20 21 18 15 9 18 18 12 7 6 15 17 13 14 14 13 12 12 10 7 -1 -4 9 5 7 12 13 11 2 2 -6 -3 8 -6 2 -3 -1 1 8 5 3 6 8 8 9 11 13 14 15 16 16
54 54 55 54 54 48 29 26 25 32 22 21 39 42 41 43 37 26 10 10 2 15 12 20 12 14 22 22 16 14 3 5 10 19 22 27 22 25 12 12 13 19 21 20 9 4 15 15 15 16 13 13 11 5 7 10 3 4 1 9 13 13 12 12 11 3 4 9 9 9 -1 -5 -5 -0 4 9 2 4 6 8 9 9 10 12 13 15 16 16
54 54 55 53 52 46 30 32 29 27 22 31 41 40 40 40 38 30 16 -8 -10 21 18 20 18 20 24 24 16 8 2 15 7 12 24 24 27 19 13 14 7 12 19 3 -11 -2 11 12 14 14 13 11 9 10 10 8 0 2 7 14 13 14 13 13 11 9 8 2 5 4 6 -1 -1 1 2 1 -1 1 5 7 10 11 11 12 14 16 16 16
54 54 53 54 52 48 40 35 30 28 33 39 37 41 37 33 28 19 7 -10 -6 18 24 20 24 16 20 23 17 19 20 19 5 14 21 22 18 15 12 17 16 22 20 14 6 10 19 11 13 13 10 9 10 13 13 8 7 8 14 17 16 16 15 13 11 10 8 -1 -2 3 5 -5 0 2 -2 -3 -1 -1 3 7 9 11 12 13 15 15 16 17
54 53 54 52 42 38 38 35 39 40 41 40 40 38 32 29 20 15 -5 -9 19 6 22 19 15 18 18 14 16 10 7 10 22 21 19 16 14 20 22 24 21 17 13 18 15 14 18 27 25 13 10 10 14 18 14 13 12 15 15 13 7 4 12 10 5 3 3 -6 2 3 5 -3 -4 -3 -4 -4 -2 2 5 7 10 12 13 13 15 15 17 16
53 52 50 49 36 34 28 22 25 42 39 43 38 30 24 17 12 2 -13 7 16 16 18 16 11 23 17 2 7 10 15 18 17 20 13 21 15 20 21 14 20 11 17 17 6 7 12 22 20 19 23 15 16 11 14 18 20 14 8 3 -1 2 -1 1 4 2 -6 -5 -1 1 6 2 -7 1 2 4 4 6 6 8 9 10 12 14 15 16 17 17
53 51 49 46 45 42 28 20 36 42 42 38 30 24 14 0 2 -8 -7 19 6 13 8 8 18 18 16 16 3 4 12 12 19 21 15 17 14 5 6 1 6 -9 6 3 -3 4 -3 14 20 18 28 14 11 9 6 14 10 10 3 3 -5 -2 -2 -14 -7 -11 -9 -3 1 -1 3 -0 -1 -1 7 5 5 6 11 13 10 10 11 13 14 15 17 17
53 51 48 46 43 37 38 37 43 42 39 35 27 22 10 8 -13 3 2 9 -1 17 13 7 6 12 15 1 -5 5 16 3 14 19 21 19 14 10 12 10 9 -10 -12 -1 -5 -3 5 11 15 18 15 22 9 5 5 2 7 5 0 -0 -3 -11 -14 -16 -6 -11 -9 -2 -1 -3 -2 -4 -2 -1 5 2 4 7 9 11 11 12 11 13 14 15 16 18
51 46 39 43 40 39 40 41 41 40 32 35 19 12 10 -12 -10 23 4 8 -2 18 18 12 14 15 -1 -4 -9 17 -2 6 14 13 10 6 5 2 6 15 15 3 2 0 -6 -8 -9 2 1 16 10 14 11 6 1 -1 8 7 1 -3 1 -2 -13 -13 -15 -14 -6 -3 -3 -0 -7 -1 -8 1 2 4 8 9 9 10 10 11 12 13 14 15 16 17
49 43 38 36 36 37 40 38 40 39 32 25 18 17 -2 2 -1 -2 2 9 9 16 14 21 10 2 -1 10 10 17 2 -2 13 12 10 5 1 8 1 6 15 9 9 -5 2 -6 -10 -3 -6 15 13 16 15 18 5 4 4 11 -0 2 -1 -4 5 -8 -4 -10 -13 -5 -2 -6 -1 5 3 7 17 10 10 10 13 11 14 13 13 14 15 16 16 17
45 38 35 31 35 33 37 38 36 33 26 19 16 3 0 3 -5 2 -4 14 16 8 10 2 2 -4 -0 -0 1 15 15 6 5 3 1 7 5 5 5 3 14 7 2 -3 5 -8 -5 -11 9 15 13 13 13 18 13 7 -3 2 -0 -4 3 8 2 -4 -1 -2 -4 -5 -2 -8 0 3 4 1 6 7 10 10 11 11 11 11 12 14 15 16 15 17
36 35 26 30 28 32 37 38 38 32 23 16 14 -1 10 12 8 2 29 12 10 8 2 -8 4 -4 -5 -5 -3 4 9 10 9 -1 -3 5 -3 5 7 12 11 12 6 2 -4 5 -6 -5 -1 13 9 16 15 18 18 16 4 4 -4 -1 7 4 2 -0 -7 -9 -13 -9 -5 -5 -1 -0 -6 0 3 4 8 9 10 10 10 10 11 13 15 15 17 17
35 34 33 26 29 37 38 37 32 29 26 17 0 27 16 12 19 16 23 20 20 5 -1 -10 0 -4 -3 -8 -6 -1 5 -2 7 2 -3 1 -11 5 10 7 16 13 14 15 -6 -3 10 -4 1 7 12 15 13 18 12 13 15 2 2 5 -1 -6 -5 3 -5 -11 -13 -12 -8 -4 -5 -3 -1 6 3 4 7 9 9 9 9 10 10 12 14 16 16 16
32 28 19 22 33 37 37 35 31 29 22 9 6 7 22 13 25 26 26 22 21 3 1 0 -12 3 -3 -5 -4 2 2 -2 2 2 -10 -8 -6 1 5 12 14 19 19 9 1 7 -3 -8 0 1 9 10 11 9 7 10 13 15 10 4 9 2 -2 -7 0 -4 -2 -7 -10 1 -7 -3 3 7 8 4 8 9 10 10 9 10 10 12 14 15 17 18
29 25 23 27 35 37 37 36 30 25 17 9 12 13 21 18 23 27 25 24 19 8 7 3 8 2 3 7 0 -3 4 1 -4 -3 -10 -7 -3 0 7 14 12 17 16 14 2 11 -2 -2 -9 1 3 1 6 8 4 10 8 9 7 3 4 -3 7 5 -5 -2 -1 -12 -11 -11 -4 -2 3 7 9 6 7 9 10 10 10 10 10 11 12 15 17 17
31 26 24 31 35 38 34 29 23 19 16 17 21 17 23 20 26 27 23 24 23 21 16 6 9 4 3 1 -1 3 6 7 3 2 -2 -2 -3 -9 4 12 16 14 15 9 6 9 -0 -6 1 3 -4 0 -1 3 5 9 11 10 11 9 10 3 -3 -6 1 -5 -9 -6 -4 -12 -3 -1 4 10 6 8 10 11 11 11 10 11 11 11 13 15 16 17
23 17 21 28 35 32 29 19 17 23 19 17 12 22 23 33 23 22 27 27 23 19 17 15 13 6 7 -1 -5 2 4 8 10 6 8 -0 2 -3 4 14 15 15 13 9 10 14 8 -4 -4 -1 -4 -4 -2 -0 13 10 12 12 10 9 10 4 5 -2 -8 -1 -6 -1 -6 -6 -10 -1 7 8 9 10 10 10 11 11 11 11 11 12 13 15 16 17
24 19 24 31 35 29 21 10 22 17 15 20 24 25 26 29 19 21 25 23 22 19 18 17 14 13 12 2 6 5 4 -0 10 7 10 5 2 2 7 15 15 12 17 7 5 5 20 -3 -5 -1 2 1 3 5 11 12 9 6 7 8 7 5 8 7 2 0 -0 -5 -4 -4 -5 2 6 8 10 10 11 11 11 11 12 12 11 12 13 14 15 17
25 26 22 29 32 31 21 11 7 8 15 22 24 24 26 27 23 22 22 21 20 18 14 16 10 14 5 16 10 4 5 -5 2 4 3 10 6 20 18 20 16 10 6 13 11 18 -4 8 -3 -5 -1 -0 2 3 4 6 8 6 3 7 7 3 2 -0 0 -4 -2 2 2 -0 -2 1 6 8 10 11 12 11 13 12 12 12 12 13 14 15 16 17
23 24 25 28 29 26 19 21 16 9 13 18 19 16 21 22 24 23 22 20 22 20 16 15 12 14 14 18 13 18 17 -2 0 1 6 10 12 17 17 16 17 12 19 23 22 5 0 7 -1 -7 -6 -8 -8 -8 -4 -1 6 7 7 7 7 8 7 4 2 -0 -1 4 1 -2 -0 1 7 10 12 11 12 12 13 14 14 12 13 14 15 17 17 17
17 4 20 19 21 24 22 25 23 19 16 17 12 14 20 18 21 25 22 23 23 22 19 18 20 18 16 13 12 12 12 12 2 1 7 5 8 17 20 18 18 18 25 29 23 9 1 5 1 4 3 -2 2 1 0 8 2 1 1 5 8 9 10 6 7 2 3 4 2 4 3 2 4 7 9 11 12 13 13 14 14 15 15 16 16 16 17 17
20 9 15 9 18 17 16 23 21 18 13 18 8 13 6 17 17 15 22 22 23 21 21 18 18 11 12 11 11 11 12 11 11 9 8 5 10 12 14 21 22 23 29 26 20 9 2 3 8 4 6 6 2 2 11 9 3 2 1 4 8 10 11 10 7 5 8 3 3 5 5 6 4 5 8 10 11 12 14 15 15 15 16 16 16 16 21 18
8 12 23 20 11 7 8 16 23 21 16 14 12 14 11 13 15 8 16 24 23 23 20 15 18 16 11 9 8 3 8 11 11 5 9 9 11 10 14 19 22 24 23 18 16 12 7 3 4 3 8 7 7 5 5 5 4 3 3 3 6 10 10 9 9 9 5 5 3 3 5 5 5 6 7 8 9 12 14 15 15 16 16 16 16 16 16 15
22 22 19 22 16 18 15 16 21 21 18 12 17 16 12 15 12 14 14 21 22 21 20 10 12 18 15 12 6 5 12 -0 6 5 6 4 6 8 7 8 18 22 17 16 14 6 10 10 4 2 6 7 7 7 7 6 6 7 7 6 6 7 10 11 9 9 8 8 6 5 5 6 6 7 10 13 15 15 15 16 16 16 15 15 16 15 15 15
21 15 14 20 23 20 20 22 22 20 18 24 10 14 15 15 13 16 17 19 11 16 20 14 15 16 18 16 11 8 9 3 0 3 3 7 3 7 6 12 10 21 18 15 13 14 11 8 14 7 4 8 8 10 9 9 8 9 9 10 10 10 10 10 11 9 9 8 8 8 7 8 8 12 14 15 16 16 16 16 15 15 15 15 15 15 14 15
26 23 23 15 12 13 20 21 22 20 16 16 12 14 18 17 15 16 15 20 11 12 19 16 18 19 21 18 15 14 16 10 6 3 8 8 8 14 7 7 19 15 15 13 11 12 7 8 3 2 2 7 7 8 9 10 9 9 9 9 9 9 10 10 10 11 9 9 8 6 7 9 11 15 16 15 16 15 15 14 14 14 14 15 14 14 15 15
25 26 25 20 12 25 18 18 17 13 10 18 17 15 15 14 19 16 10 15 19 20 22 21 19 14 16 18 17 18 18 17 18 18 13 14 13 15 13 11 16 19 15 15 9 10 10 5 3 1 2 7 6 8 8 9 8 7 8 7 7 8 9 8 8 9 10 9 6 3 9 9 14 15 14 14 14 14 14 14 13 14 14 14 14 15 15 16